Date,TemperatureHighF,TemperatureAvgF,TemperatureLowF,DewpointHighF,DewpointAvgF,DewpointLowF,HumidityHigh,HumidityAvg,HumidityLow,PressureMaxIn,PressureMinIn,WindSpeedMaxMPH,WindSpeedAvgMPH,GustSpeedMaxMPH,PrecipitationSumIn
2013-1-1,47,43,38,42,36,27,99,76,51,30.06,29.89,12,1,15,0.24
2013-1-2,43,39,36,42,36,34,100,91,78,30.20,29.95,10,1,11,0.14
2013-1-3,39,34,28,35,27,24,93,77,65,30.25,30.16,9,0,12,0.00
2013-1-4,46,35,25,25,22,20,83,61,37,30.28,30.16,19,3,19,0.00
2013-1-5,50,39,27,29,22,19,76,53,31,30.38,30.21,11,1,13,0.00
2013-1-6,52,43,36,36,31,27,89,65,45,30.22,30.04,15,2,15,0.00
2013-1-7,49,40,31,32,29,26,84,65,46,30.43,30.16,12,1,12,0.00
2013-1-8,49,38,28,36,32,26,95,79,59,30.47,30.37,9,1,12,0.00
2013-1-9,68,51,33,52,44,31,95,79,55,30.41,30.30,16,3,18,0.00
2013-1-10,60,49,40,48,39,30,99,71,38,30.55,30.39,10,1,11,0.00
2013-1-11,44,41,38,43,38,29,100,88,55,30.46,30.12,11,1,13,0.15
2013-1-12,63,51,43,57,50,43,100,96,81,30.17,30.10,12,1,14,0.00
2013-1-13,73,61,51,62,58,51,100,89,66,30.11,30.00,17,3,20,0.00
2013-1-14,64,58,42,62,56,42,100,95,86,30.24,30.01,20,5,22,0.88
2013-1-15,42,40,38,42,40,38,100,99,97,30.31,30.11,15,3,18,1.72
2013-1-16,45,40,37,44,40,37,100,99,97,30.11,29.92,13,2,16,0.39
2013-1-17,46,42,32,46,42,32,100,100,98,30.11,29.98,25,2,27,0.85
2013-1-18,35,33,30,30,27,25,91,79,72,30.52,30.47,6,0,6,0.74
2013-1-19,50,39,28,31,27,24,87,64,43,30.48,30.08,17,5,19,0.03
2013-1-20,58,45,36,36,29,24,70,54,33,30.09,29.94,26,5,28,0.00
2013-1-21,54,41,27,31,22,5,90,52,26,30.08,29.80,20,3,24,0.00
2013-1-22,36,26,18,10,0,-5,53,32,23,30.29,29.94,23,3,23,0.00
2013-1-23,34,25,13,14,4,-3,74,43,22,30.36,30.06,21,2,21,0.00
2013-1-24,31,25,16,20,9,-3,85,53,25,30.54,29.99,24,4,27,0.00
2013-1-25,24,19,13,20,12,3,93,73,42,30.53,30.09,14,2,15,0.00
2013-1-26,39,27,20,27,23,19,95,84,54,30.43,30.08,7,0,7,0.02
2013-1-27,37,29,19,26,23,18,96,79,57,30.62,30.43,10,1,11,0.00
2013-1-28,56,41,32,45,36,26,97,82,58,30.49,30.14,21,5,21,0.22
2013-1-29,73,58,45,56,48,42,93,72,43,30.16,30.00,18,5,20,0.00
2013-1-30,70,66,61,64,61,56,95,82,73,30.00,29.29,31,11,34,0.57
2013-1-31,63,40,29,61,20,15,92,46,30,29.94,29.30,34,8,34,0.32
2013-2-1,38,30,21,28,8,-1,78,41,25,30.39,29.80,28,5,30,0.00
2013-2-2,36,27,16,21,11,2,73,52,31,30.39,30.00,20,2,21,0.00
2013-2-3,44,36,27,26,21,16,73,56,42,30.00,29.84,19,3,26,0.00
2013-2-4,40,33,24,25,18,14,71,54,42,30.13,29.94,14,2,16,0.00
2013-2-5,57,47,38,37,31,24,62,54,44,29.94,29.84,17,3,20,0.00
2013-2-6,55,45,36,33,29,22,85,56,28,30.31,29.92,14,1,16,0.00
2013-2-7,43,38,32,36,29,25,97,73,56,30.39,30.11,11,2,13,0.20
2013-2-8,54,41,34,42,34,24,100,79,50,30.12,29.77,25,5,30,0.32
2013-2-9,49,38,28,24,18,11,74,46,23,30.37,29.98,19,2,22,0.00
2013-2-10,48,36,21,35,19,13,87,54,30,30.50,30.22,12,1,14,0.02
2013-2-11,56,47,38,54,46,34,100,95,67,30.23,29.84,22,4,25,0.04
2013-2-12,58,50,40,43,27,22,67,41,25,30.02,29.86,20,3,23,0.00
2013-2-13,48,42,33,41,36,28,100,81,45,29.92,29.62,14,1,15,0.03
2013-2-14,52,40,29,35,31,27,100,73,41,30.05,29.80,14,1,16,0.01
2013-2-15,61,47,32,38,32,25,90,59,28,30.07,29.89,19,3,20,0.00
2013-2-16,44,34,27,38,32,25,99,94,78,29.98,29.84,11,1,12,0.20
2013-2-17,31,25,18,25,12,2,95,61,30,30.27,29.88,22,2,22,0.00
2013-2-18,48,33,15,22,14,6,79,48,30,30.41,30.20,18,2,18,0.09
2013-2-19,45,40,37,43,33,21,97,77,45,30.20,29.79,24,6,27,0.06
2013-2-20,47,38,29,21,13,8,54,37,21,30.15,29.91,24,4,25,0.00
2013-2-21,48,37,26,21,16,12,66,44,27,30.31,30.12,12,1,14,0.00
2013-2-22,40,36,31,33,24,17,91,62,49,30.36,30.17,9,1,11,0.00
2013-2-23,46,38,34,42,37,33,99,96,87,30.17,29.81,12,0,14,0.05
2013-2-24,59,45,35,44,32,20,100,68,27,30.08,29.80,19,2,19,0.01
2013-2-25,42,34,27,25,22,19,79,61,41,30.23,30.08,15,1,16,0.00
2013-2-26,47,37,28,47,34,21,100,89,71,30.20,29.59,15,2,17,0.80
2013-2-27,56,46,39,44,38,33,100,77,42,29.72,29.57,19,3,23,0.01
2013-2-28,47,40,33,38,29,23,95,66,41,29.80,29.65,25,4,25,0.00
2013-3-1,43,38,32,31,28,26,80,68,55,29.91,29.79,12,1,13,0.00
2013-3-2,38,36,33,29,23,19,77,58,48,29.91,29.83,12,1,13,0.00
2013-3-3,45,34,25,22,18,14,75,52,33,29.95,29.81,20,2,20,0.00
2013-3-4,49,35,21,16,12,7,70,42,19,30.07,29.95,17,2,18,0.00
2013-3-5,48,39,30,38,26,10,97,63,37,30.08,29.67,19,2,21,0.64
2013-3-6,38,35,32,36,33,29,99,94,75,30.02,29.51,26,5,27,0.59
2013-3-7,48,39,31,32,28,23,89,64,45,30.21,30.01,18,2,19,0.06
2013-3-8,51,40,28,28,25,22,83,59,36,30.29,30.15,26,4,30,0.00
2013-3-9,60,44,28,31,24,18,86,50,19,30.35,30.25,14,1,16,0.00
2013-3-10,66,49,29,34,24,19,86,45,17,30.32,30.19,14,2,17,0.00
2013-3-11,65,54,41,51,43,24,92,68,34,30.22,29.90,22,3,22,0.00
2013-3-12,66,58,45,60,48,31,99,71,37,29.94,29.70,18,6,22,0.51
2013-3-13,52,42,31,35,26,12,85,55,31,30.11,29.94,28,4,33,0.00
2013-3-14,50,39,28,19,16,13,60,40,24,30.20,30.06,24,4,26,0.00
2013-3-15,60,46,29,35,24,14,59,43,33,30.14,29.84,20,4,24,0.00
2013-3-16,77,56,44,57,45,34,100,69,33,29.84,29.53,34,3,39,0.32
2013-3-17,54,41,36,53,39,35,100,94,89,30.24,29.82,14,3,17,0.11
2013-3-18,36,35,33,36,34,33,99,98,97,30.26,29.88,15,2,15,0.25
2013-3-19,63,47,33,44,27,2,100,60,12,30.00,29.78,28,5,31,0.00
2013-3-20,55,45,32,18,11,5,42,25,17,30.06,29.75,26,3,26,0.00
2013-3-21,47,36,29,30,17,6,94,49,26,29.95,29.73,18,3,24,0.02
2013-3-22,49,35,21,19,14,8,69,43,25,30.05,29.92,18,3,20,0.00
2013-3-23,57,42,28,29,22,13,77,47,21,30.06,29.89,15,1,17,0.00
2013-3-24,44,36,32,32,28,22,98,77,45,29.97,29.61,15,3,19,0.15
2013-3-25,46,36,31,35,30,24,100,81,45,29.74,29.54,24,3,27,0.46
2013-3-26,47,39,32,31,27,24,79,62,42,30.06,29.74,14,2,16,0.00
2013-3-27,52,40,30,28,24,18,82,55,29,30.20,30.06,28,4,28,0.00
2013-3-28,54,42,30,27,24,20,77,51,29,30.27,30.14,24,2,25,0.00
2013-3-29,59,46,33,30,26,21,74,47,24,30.30,30.14,19,1,21,0.00
2013-3-30,63,50,34,33,28,24,81,47,25,30.24,30.08,14,1,15,0.00
2013-3-31,59,52,45,54,46,30,100,83,42,30.08,29.75,15,2,15,0.26
2013-4-1,69,56,45,52,40,26,96,59,31,29.98,29.77,27,4,34,0.00
2013-4-2,54,45,33,27,18,10,68,36,17,30.16,29.98,23,3,24,0.00
2013-4-3,56,43,27,26,16,9,80,38,16,30.36,30.15,17,2,18,0.00
2013-4-4,47,38,33,36,22,13,99,56,27,30.42,30.02,13,2,14,0.69
2013-4-5,64,48,35,45,38,31,99,73,35,30.02,29.86,14,2,15,0.16
2013-4-6,60,50,40,38,25,15,68,40,19,30.30,30.02,18,2,19,0.00
2013-4-7,74,55,36,42,33,22,77,46,27,30.26,30.03,22,6,26,0.00
2013-4-8,81,66,54,53,48,42,82,54,30,30.11,29.97,20,5,23,0.00
2013-4-9,85,73,60,57,53,48,79,52,29,30.12,29.98,19,5,20,0.00
2013-4-10,89,77,64,60,56,51,75,51,28,30.02,29.85,19,5,23,0.00
2013-4-11,83,74,65,62,58,54,76,59,39,29.90,29.73,25,6,27,0.00
2013-4-12,82,72,64,67,58,38,97,66,28,29.74,29.54,22,5,25,0.58
2013-4-13,72,62,52,42,36,28,54,39,26,29.95,29.70,20,2,22,0.00
2013-4-14,78,64,47,46,36,29,67,37,22,30.09,29.96,14,1,17,0.00
2013-4-15,67,60,54,56,54,46,99,84,50,30.24,30.02,14,2,19,0.24
2013-4-16,75,64,56,61,57,55,98,81,57,30.30,30.15,13,1,15,0.00
2013-4-17,84,71,60,64,60,56,89,68,43,30.19,30.07,12,2,14,0.00
2013-4-18,78,70,63,64,60,54,96,73,45,30.17,29.99,22,3,24,0.00
2013-4-19,80,69,58,67,63,56,96,82,62,29.99,29.63,33,7,33,0.46
2013-4-20,62,53,45,56,34,25,92,52,25,30.28,29.75,15,1,16,0.00
2013-4-21,58,49,41,37,32,27,72,52,37,30.54,30.28,19,2,19,0.00
2013-4-22,60,48,35,42,36,31,92,67,42,30.52,30.32,21,3,21,0.00
2013-4-23,66,54,46,49,44,40,91,71,50,30.34,30.10,13,2,16,0.00
2013-4-24,76,63,50,56,52,47,94,70,42,30.12,29.89,26,5,30,0.00
2013-4-25,67,58,47,56,41,32,83,55,28,30.27,29.94,16,1,16,0.00
2013-4-26,68,55,37,45,38,31,95,58,27,30.45,30.27,14,1,15,0.00
2013-4-27,72,61,50,48,42,36,79,53,28,30.38,30.25,12,1,13,0.00
2013-4-28,60,56,53,53,48,43,90,74,64,30.26,30.10,12,1,14,0.02
2013-4-29,65,57,53,59,55,49,100,95,79,30.10,29.99,6,0,7,0.52
2013-4-30,66,59,54,58,56,54,100,91,73,30.22,30.03,13,2,15,0.00
2013-5-1,69,60,54,56,51,44,100,77,43,30.36,30.21,17,3,19,0.00
2013-5-2,67,57,51,54,50,42,97,78,53,30.38,30.28,12,1,12,0.00
2013-5-3,69,55,43,56,47,35,100,77,37,30.32,30.21,17,2,21,0.00
2013-5-4,60,51,44,52,46,42,94,84,73,30.27,30.13,13,2,14,0.00
2013-5-5,65,52,41,54,47,39,97,83,64,30.17,30.06,18,3,18,0.00
2013-5-6,63,57,52,62,56,50,100,97,82,30.09,29.87,17,3,23,0.94
2013-5-7,71,62,53,64,58,52,100,88,54,29.93,29.83,13,1,15,0.05
2013-5-8,60,55,51,58,55,51,100,97,83,29.99,29.90,6,0,6,0.45
2013-5-9,79,64,49,61,55,49,100,76,41,30.02,29.95,12,1,13,0.01
2013-5-10,84,71,56,62,59,55,99,70,43,30.03,29.88,14,2,16,0.00
2013-5-11,76,69,62,67,63,59,100,80,61,29.91,29.73,19,2,21,0.43
2013-5-12,68,61,50,62,45,30,100,61,27,30.04,29.75,21,2,23,0.01
2013-5-13,62,52,39,42,34,24,89,55,27,30.18,30.03,17,1,21,0.00
2013-5-14,69,54,36,42,37,30,97,59,28,30.24,30.03,15,1,16,0.00
2013-5-15,86,71,56,64,55,42,71,57,44,30.03,29.79,20,4,20,0.00
2013-5-16,86,74,63,64,61,57,88,65,40,29.94,29.82,16,1,20,0.00
2013-5-17,83,72,63,68,61,57,96,70,45,30.09,29.93,14,1,15,0.05
2013-5-18,66,63,59,66,62,56,100,97,71,30.19,30.08,11,1,14,0.23
2013-5-19,74,66,63,69,65,63,100,97,81,30.16,30.06,13,1,16,0.48
2013-5-20,78,70,64,71,68,63,100,94,72,30.09,29.99,9,1,9,0.10
2013-5-21,83,73,67,72,69,66,100,88,66,30.01,29.89,11,1,13,0.00
2013-5-22,83,76,68,72,69,65,97,82,64,29.97,29.84,18,3,19,0.00
2013-5-23,78,70,63,70,67,61,100,88,69,29.92,29.75,15,1,15,0.35
2013-5-24,67,61,47,61,51,37,100,72,39,30.16,29.76,21,2,23,0.00
2013-5-25,70,53,37,47,39,31,97,63,30,30.26,30.11,13,0,14,0.00
2013-5-26,73,58,42,49,42,33,93,59,25,30.26,30.14,11,0,11,0.00
2013-5-27,75,62,45,60,52,44,98,74,49,30.28,30.15,10,0,11,0.00
2013-5-28,84,72,55,68,62,54,97,75,50,30.19,30.08,18,3,19,0.00
2013-5-29,86,76,67,68,65,63,89,69,49,30.17,30.10,18,3,20,0.00
2013-5-30,86,76,65,69,65,63,94,72,49,30.22,30.13,14,2,17,0.00
2013-5-31,86,76,64,70,65,62,95,71,47,30.18,30.06,17,2,17,0.00
2013-6-1,88,78,69,71,66,62,93,68,44,30.07,29.95,17,3,21,0.00
2013-6-2,84,73,67,70,67,64,100,82,60,29.97,29.87,17,3,20,0.99
2013-6-3,82,72,66,72,69,66,100,92,61,29.94,29.80,11,1,13,0.17
2013-6-4,76,68,60,66,59,53,100,76,47,30.11,29.93,13,1,15,0.01
2013-6-5,79,69,55,63,58,50,97,71,52,30.15,30.02,10,1,10,0.00
2013-6-6,76,68,61,70,64,56,99,86,68,30.04,29.79,17,2,19,0.12
2013-6-7,71,68,67,70,68,67,100,100,99,29.81,29.56,16,2,21,0.91
2013-6-8,80,71,65,68,66,61,100,86,55,30.07,29.76,7,0,9,0.11
2013-6-9,86,75,64,72,68,63,100,81,57,30.15,30.03,18,1,21,0.13
2013-6-10,83,73,69,74,71,65,100,93,71,30.08,29.81,21,3,24,0.55
2013-6-11,83,74,68,69,67,64,100,80,55,29.90,29.82,16,2,17,0.04
2013-6-12,88,78,67,75,69,64,92,75,55,29.92,29.80,16,1,16,0.00
2013-6-13,90,77,66,75,72,63,98,85,53,29.81,29.52,24,2,37,0.19
2013-6-14,77,68,58,64,58,54,97,74,46,29.99,29.66,16,1,19,0.00
2013-6-15,82,70,57,63,59,54,99,71,41,30.09,29.99,11,0,12,0.00
2013-6-16,85,76,66,73,66,61,88,74,57,30.04,29.93,15,2,16,0.00
2013-6-17,84,73,68,74,69,66,100,89,63,29.99,29.87,19,1,24,1.27
2013-6-18,78,70,66,74,70,66,100,98,83,29.94,29.76,13,1,17,0.10
2013-6-19,76,68,62,68,65,62,100,90,70,30.12,29.86,10,0,10,0.00
2013-6-20,80,70,63,66,62,54,100,76,53,30.25,30.12,11,1,12,0.00
2013-6-21,81,70,57,66,58,51,96,70,37,30.29,30.20,12,1,12,0.00
2013-6-22,81,71,63,74,68,62,100,91,67,30.25,30.13,12,1,12,0.13
2013-6-23,86,76,69,74,71,69,100,87,59,30.19,30.08,10,0,13,0.47
2013-6-24,87,78,70,75,72,69,99,82,60,30.15,30.03,13,1,14,0.00
2013-6-25,89,79,70,75,72,70,99,82,56,30.06,29.93,12,1,14,0.01
2013-6-26,89,76,68,75,71,68,100,85,60,29.95,29.82,15,2,26,0.90
2013-6-27,83,74,67,76,70,67,100,90,67,29.87,29.66,17,2,22,0.03
2013-6-28,88,77,70,76,72,68,99,84,64,29.69,29.50,19,2,19,0.01
2013-6-29,86,77,68,73,68,65,96,76,52,29.69,29.54,17,2,19,0.00
2013-6-30,85,75,71,76,72,68,100,91,71,29.85,29.68,16,1,21,0.03
2013-7-1,83,75,70,74,72,70,100,91,70,29.96,29.82,13,1,15,0.65
2013-7-2,77,74,72,74,72,71,99,94,86,30.18,29.96,18,2,20,0.04
2013-7-3,82,75,72,76,73,72,100,95,75,30.23,30.13,11,1,12,0.85
2013-7-4,88,79,72,75,73,71,100,83,61,30.26,30.16,15,2,16,0.00
2013-7-5,87,79,71,75,72,70,99,82,63,30.25,30.13,14,1,14,0.00
2013-7-6,86,79,72,74,73,70,100,82,60,30.22,30.10,11,1,14,0.00
2013-7-7,86,78,72,76,73,71,99,85,64,30.14,30.02,17,2,18,0.00
2013-7-8,85,76,70,73,72,69,100,87,60,30.14,30.06,11,1,12,0.04
2013-7-9,86,78,73,77,74,71,100,87,67,30.11,30.02,11,1,11,0.00
2013-7-10,87,78,72,77,74,71,100,89,70,30.05,29.90,11,1,13,1.16
2013-7-11,81,75,70,75,73,70,100,94,77,29.94,29.86,14,1,16,1.59
2013-7-12,71,69,66,71,68,66,100,98,93,30.03,29.84,13,1,14,0.51
2013-7-13,82,74,67,76,71,67,100,92,75,30.21,30.02,11,1,14,0.01
2013-7-14,87,78,69,75,72,69,100,85,57,30.32,30.21,8,0,10,0.00
2013-7-15,89,79,70,76,73,69,100,83,52,30.32,30.21,7,0,7,0.00
2013-7-16,92,81,72,80,74,71,99,81,53,30.24,30.15,14,0,16,0.01
2013-7-17,91,81,73,79,75,70,100,84,54,30.21,30.08,11,0,11,0.00
2013-7-18,92,82,72,80,75,70,100,81,51,30.12,30.01,4,0,5,0.00
2013-7-19,90,83,74,78,76,74,100,81,63,30.04,29.91,14,2,16,0.00
2013-7-20,89,81,75,78,75,72,93,83,68,29.95,29.85,16,3,18,0.00
2013-7-21,89,77,72,79,74,72,100,90,66,29.94,29.86,18,1,24,0.03
2013-7-22,86,77,70,77,73,70,100,90,72,29.93,29.77,15,1,15,0.00
2013-7-23,88,79,72,75,73,70,99,81,57,29.78,29.66,11,1,12,0.00
2013-7-24,87,76,68,75,71,67,99,85,59,29.87,29.68,13,1,16,0.20
2013-7-25,78,70,64,67,64,59,100,82,58,30.03,29.85,14,1,15,0.01
2013-7-26,81,71,60,68,64,59,100,79,54,30.10,30.01,9,0,9,0.00
2013-7-27,81,73,67,73,69,65,100,87,68,30.04,29.91,14,1,14,0.00
2013-7-28,84,74,69,74,70,67,100,88,66,29.98,29.88,13,1,15,0.00
2013-7-29,82,72,65,69,67,62,100,84,53,30.15,29.96,10,0,11,0.00
2013-7-30,83,71,59,70,65,58,100,83,51,30.22,30.13,10,0,10,0.00
2013-7-31,81,72,65,73,68,65,100,91,70,30.14,30.00,7,0,12,0.46
2013-8-1,84,73,67,74,70,67,100,92,68,30.00,29.81,14,1,18,0.72
2013-8-2,84,74,65,70,66,60,100,80,47,30.00,29.87,10,0,16,0.01
2013-8-3,85,75,67,75,69,65,100,83,54,29.98,29.89,7,0,11,0.00
2013-8-4,81,74,66,70,65,57,97,75,47,30.03,29.89,16,1,16,0.00
2013-8-5,78,70,60,66,62,57,98,78,52,30.11,29.99,9,0,9,0.00
2013-8-6,81,73,68,72,68,64,95,84,68,30.03,29.95,13,1,14,0.00
2013-8-7,84,76,69,73,70,67,95,83,64,30.07,30.00,14,1,17,0.00
2013-8-8,86,78,72,74,72,70,94,82,62,30.04,29.96,13,1,15,0.00
2013-8-9,89,80,75,79,74,71,92,82,66,29.98,29.90,15,3,18,0.00
2013-8-10,88,78,73,76,74,72,100,88,63,30.07,29.96,12,1,14,0.05
2013-8-11,83,76,71,77,73,70,100,92,74,30.10,29.99,8,0,9,0.00
2013-8-12,88,78,69,76,72,68,100,83,54,30.03,29.91,7,0,8,0.00
2013-8-13,85,76,71,75,73,71,100,92,66,29.92,29.74,11,1,13,0.02
2013-8-14,74,69,60,73,60,50,100,77,48,30.11,29.78,17,1,17,0.00
2013-8-15,75,64,54,62,57,52,99,81,46,30.18,30.08,10,0,10,0.00
2013-8-16,74,64,54,64,59,54,100,87,58,30.19,30.11,7,0,10,0.00
2013-8-17,74,66,57,69,63,57,100,90,71,30.22,30.16,13,1,15,0.02
2013-8-18,67,65,64,66,65,64,100,100,98,30.22,30.12,12,1,13,0.63
2013-8-19,73,67,64,70,66,64,100,97,89,30.20,30.07,9,0,10,0.19
2013-8-20,84,72,65,73,69,65,100,91,66,30.18,30.09,6,0,7,0.00
2013-8-21,85,76,68,77,72,68,100,91,73,30.20,30.07,10,0,11,0.00
2013-8-22,86,78,71,74,71,65,100,81,52,30.10,29.96,9,0,10,0.00
2013-8-23,83,71,64,73,68,62,100,93,66,30.11,29.92,15,1,19,0.72
2013-8-24,81,69,58,67,62,58,100,81,48,30.30,30.11,14,1,16,0.01
2013-8-25,79,68,59,67,61,56,100,81,48,30.40,30.28,7,0,9,0.00
2013-8-26,82,69,56,67,61,55,99,77,48,30.31,30.05,10,0,10,0.00
2013-8-27,88,75,64,76,69,61,98,82,57,30.06,29.91,10,1,11,0.00
2013-8-28,77,74,70,75,72,69,99,94,84,29.97,29.80,13,1,15,0.02
2013-8-29,82,75,70,74,72,70,100,92,71,30.01,29.79,14,1,17,0.01
2013-8-30,85,74,65,72,69,65,100,85,59,30.05,29.91,9,0,10,0.00
2013-8-31,87,76,68,76,70,66,100,84,65,29.93,29.81,15,1,15,0.00
2013-9-1,88,76,67,78,72,67,100,87,62,29.86,29.75,14,1,18,0.45
2013-9-2,87,78,70,75,72,69,100,84,58,29.83,29.74,11,1,12,0.08
2013-9-3,85,77,70,74,72,68,100,85,59,29.92,29.74,15,0,16,0.00
2013-9-4,80,71,64,73,64,59,99,78,56,30.09,29.91,13,1,15,0.00
2013-9-5,86,72,61,68,64,59,100,78,42,30.09,30.00,9,0,11,0.00
2013-9-6,80,68,60,63,58,53,91,71,45,30.21,30.09,11,1,14,0.00
2013-9-7,80,66,54,65,60,53,100,82,56,30.12,29.94,14,1,14,0.00
2013-9-8,86,72,60,71,64,59,100,79,49,29.98,29.88,6,0,6,0.00
2013-9-9,80,73,69,71,68,61,99,85,67,30.16,29.97,13,1,13,0.00
2013-9-10,89,76,64,75,70,64,100,84,57,30.20,30.10,10,1,13,0.00
2013-9-11,91,79,70,74,70,67,94,75,48,30.16,30.01,12,1,14,0.00
2013-9-12,89,78,69,74,70,67,98,80,58,30.01,29.75,11,1,13,0.00
2013-9-13,80,72,63,69,62,53,93,72,48,29.91,29.71,11,1,15,0.00
2013-9-14,71,61,54,54,50,45,91,70,44,30.15,29.91,13,1,15,0.00
2013-9-15,78,62,45,61,53,45,100,77,46,30.25,30.10,13,0,13,0.00
2013-9-16,78,67,60,67,62,58,96,86,62,30.11,30.08,12,1,12,0.00
2013-9-17,71,62,52,57,53,49,93,73,53,30.37,30.28,14,1,14,0.00
2013-9-18,71,59,45,53,48,38,100,71,35,30.31,30.18,7,0,8,0.00
2013-9-19,71,62,53,60,56,51,98,83,59,30.19,30.07,7,0,10,0.00
2013-9-20,77,67,58,67,63,57,100,88,66,30.08,29.95,8,0,11,0.00
2013-9-21,71,67,62,69,65,62,100,96,88,29.95,29.69,16,2,21,0.55
2013-9-22,75,65,58,65,60,54,100,85,51,29.92,29.71,13,1,14,0.01
2013-9-23,69,59,52,56,52,48,96,77,53,30.08,29.91,11,1,12,0.00
2013-9-24,74,61,51,60,54,49,100,81,54,30.11,29.94,6,0,7,0.00
2013-9-25,72,61,51,61,56,51,100,87,54,29.96,29.87,10,0,10,0.01
2013-9-26,76,63,55,61,57,53,100,83,50,30.05,29.89,12,1,13,0.02
2013-9-27,74,60,49,61,55,49,100,87,56,30.21,30.05,12,1,15,0.00
2013-9-28,68,60,52,58,56,52,100,88,66,30.28,30.19,11,1,12,0.00
2013-9-29,73,61,50,58,54,50,100,82,48,30.19,30.04,12,0,12,0.00
2013-9-30,75,61,48,60,55,48,100,83,53,30.10,29.98,7,0,7,0.00
2013-10-1,82,66,55,64,59,54,98,79,44,30.09,29.99,7,0,7,0.00
2013-10-2,83,69,56,64,60,56,100,78,44,30.11,30.01,5,0,7,0.00
2013-10-3,84,69,57,68,63,57,100,83,49,30.11,30.03,10,0,11,0.00
2013-10-4,87,72,62,68,64,62,99,79,45,30.10,30.01,7,0,9,0.00
2013-10-5,89,74,61,70,65,61,100,78,44,30.09,29.99,7,0,8,0.00
2013-10-6,86,75,65,69,66,60,95,75,44,30.03,29.90,15,2,18,0.00
2013-10-7,74,68,59,72,66,56,99,93,86,30.02,29.79,22,2,23,0.53
2013-10-8,63,56,51,57,50,46,96,81,58,30.24,30.02,16,2,19,0.00
2013-10-9,57,55,52,55,52,48,100,90,79,30.24,30.13,19,4,20,0.23
2013-10-10,59,55,52,59,55,52,100,100,99,30.13,29.94,20,4,22,0.47
2013-10-11,64,60,57,62,59,57,100,98,88,29.97,29.90,14,2,14,0.08
2013-10-12,65,62,60,65,62,60,100,100,99,30.11,29.94,14,2,17,0.13
2013-10-13,63,60,59,63,60,59,100,100,99,30.26,30.10,13,3,18,0.13
2013-10-14,63,59,54,60,58,54,100,97,85,30.29,30.20,12,2,14,0.01
2013-10-15,71,59,48,60,54,48,100,86,48,30.21,30.07,11,1,12,0.00
2013-10-16,72,64,60,63,61,59,100,91,69,30.07,29.92,6,0,7,0.00
2013-10-17,71,65,61,64,62,60,99,92,76,29.93,29.76,13,2,16,0.00
2013-10-18,68,58,47,63,50,44,99,77,45,30.04,29.84,9,0,11,0.00
2013-10-19,60,54,48,60,54,48,100,99,94,29.98,29.81,10,0,12,0.00
2013-10-20,63,52,42,55,42,33,100,73,36,30.11,29.88,9,0,10,0.00
2013-10-21,66,51,36,50,43,36,100,75,44,30.17,29.98,11,1,13,0.00
2013-10-22,72,59,52,53,50,46,92,75,42,29.98,29.79,18,1,18,0.00
2013-10-23,59,50,43,51,44,36,100,81,55,29.95,29.68,14,1,17,0.06
2013-10-24,52,42,34,36,33,30,94,72,46,30.18,29.95,15,1,19,0.00
2013-10-25,55,42,31,34,30,22,95,68,30,30.35,30.18,10,0,12,0.00
2013-10-26,57,43,28,34,30,26,95,64,34,30.34,30.01,20,2,23,0.00
2013-10-27,64,52,39,43,38,34,91,63,38,30.12,30.01,15,1,17,0.00
2013-10-28,69,52,35,52,43,35,100,76,41,30.25,30.11,9,0,9,0.00
2013-10-29,68,58,50,53,50,47,97,78,51,30.36,30.24,7,0,9,0.00
2013-10-30,68,59,52,61,55,46,100,86,72,30.29,30.13,12,0,14,0.01
2013-10-31,72,65,56,60,58,56,99,80,65,30.17,29.81,18,4,25,0.00
2013-11-1,71,67,62,66,64,60,100,88,74,29.82,29.62,28,6,30,0.02
2013-11-2,69,59,46,60,47,36,100,69,31,29.91,29.64,18,1,19,0.00
2013-11-3,61,48,36,41,35,29,89,64,32,30.40,29.91,14,1,20,0.00
2013-11-4,52,41,33,34,29,26,86,63,40,30.60,30.40,13,1,13,0.00
2013-11-5,54,45,36,42,36,29,79,70,59,30.60,30.46,9,0,10,0.00
2013-11-6,70,56,48,54,49,41,95,77,54,30.47,30.10,11,1,11,0.00
2013-11-7,67,57,42,58,48,31,100,75,49,30.10,29.89,16,2,19,0.00
2013-11-8,56,43,31,32,27,22,80,56,28,30.33,30.08,16,1,18,0.00
2013-11-9,57,43,27,31,28,24,92,60,32,30.38,30.11,17,2,20,0.00
2013-11-10,69,53,41,39,29,18,66,44,18,30.26,30.01,24,3,27,0.00
2013-11-11,59,46,30,31,28,25,84,52,29,30.34,30.08,15,2,16,0.00
2013-11-12,51,42,29,36,25,14,65,51,39,30.42,29.98,24,4,30,0.00
2013-11-13,46,33,22,19,15,13,79,51,27,30.54,30.42,17,1,18,0.00
2013-11-14,62,43,28,23,17,12,66,40,14,30.42,30.28,16,3,17,0.00
2013-11-15,60,49,35,48,31,22,91,52,27,30.32,30.20,13,2,18,0.01
2013-11-16,57,53,49,55,52,48,100,98,91,30.29,30.21,5,0,5,0.21
2013-11-17,68,60,54,63,57,54,100,92,75,30.22,29.79,19,2,20,0.00
2013-11-18,69,62,51,65,42,23,95,54,25,29.95,29.73,22,4,24,0.01
2013-11-19,53,45,35,30,27,23,72,50,33,30.37,29.95,17,2,19,0.00
2013-11-20,49,40,35,33,28,25,86,61,41,30.51,30.35,16,2,16,0.00
2013-11-21,55,45,36,43,38,32,87,78,62,30.54,30.39,11,1,12,0.00
2013-11-22,70,58,45,58,51,41,92,79,63,30.40,30.02,27,4,27,0.00
2013-11-23,60,52,38,57,36,12,92,58,21,30.16,30.01,20,2,21,0.00
2013-11-24,38,30,20,17,5,-3,62,35,21,30.55,30.16,23,3,28,0.00
2013-11-25,39,28,17,17,10,6,73,48,27,30.59,30.36,12,1,13,0.00
2013-11-26,44,37,32,44,31,11,100,83,35,30.39,29.59,17,1,21,1.61
2013-11-27,43,38,29,43,35,16,100,90,54,30.12,29.51,20,2,24,0.73
2013-11-28,40,31,21,22,17,13,80,58,38,30.48,30.12,16,1,19,0.00
2013-11-29,46,34,25,26,22,19,82,63,41,30.69,30.45,11,1,14,0.00
2013-11-30,42,32,25,27,23,20,92,73,52,30.70,30.38,10,1,11,0.00
2013-12-1,55,37,22,31,26,20,94,68,30,30.38,30.02,15,1,15,0.00
2013-12-2,59,43,28,39,32,25,90,69,39,30.02,29.84,7,0,7,0.00
2013-12-3,59,46,34,44,39,32,96,77,53,30.00,29.87,11,1,13,0.00
2013-12-4,60,53,46,55,50,44,98,90,78,30.08,29.98,11,1,11,0.00
2013-12-5,65,61,56,64,60,55,100,97,94,30.09,29.96,16,4,18,0.06
2013-12-6,75,62,42,65,58,41,98,89,63,30.12,29.89,24,7,25,0.02
2013-12-7,44,40,36,41,36,28,99,85,72,30.51,30.05,15,4,20,0.31
2013-12-8,36,31,29,30,28,23,99,89,70,30.54,30.30,15,2,17,0.21
2013-12-9,38,35,30,38,35,30,100,100,99,30.31,30.05,11,2,12,0.35
2013-12-10,45,36,30,40,32,21,100,87,53,30.28,29.98,20,2,22,0.29
2013-12-11,45,34,23,25,22,19,85,63,39,30.43,30.26,12,2,14,0.00
2013-12-12,40,32,26,23,14,4,79,49,24,30.42,30.26,22,2,22,0.00
2013-12-13,48,36,24,25,16,10,61,45,28,30.36,30.25,17,2,17,0.00
2013-12-14,40,36,34,35,31,22,100,82,49,30.30,29.76,10,1,13,0.52
2013-12-15,51,40,32,41,33,25,100,78,45,30.02,29.67,19,3,21,0.01
2013-12-16,46,37,30,33,29,26,88,73,55,30.16,29.99,12,1,14,0.00
2013-12-17,54,39,28,41,34,26,98,83,50,30.11,29.89,17,1,19,0.36
2013-12-18,44,36,28,36,24,20,97,63,40,30.25,30.00,19,2,20,0.00
2013-12-19,62,47,33,27,23,20,63,41,24,30.25,30.16,18,5,21,0.00
2013-12-20,64,54,45,49,39,26,74,58,39,30.19,30.05,22,7,31,0.00
2013-12-21,70,62,53,64,55,48,92,80,65,30.10,29.96,25,7,26,0.00
2013-12-22,72,65,60,67,63,60,99,92,81,30.04,29.91,27,7,34,0.87
2013-12-23,64,58,43,64,57,37,100,96,74,30.17,29.93,19,4,22,0.34
2013-12-24,43,35,26,37,24,7,96,64,40,30.47,30.16,20,2,24,0.00
2013-12-25,34,26,19,17,12,7,76,56,33,30.58,30.39,9,1,10,0.00
2013-12-26,51,34,20,26,20,14,87,58,35,30.39,30.24,15,2,18,0.00
2013-12-27,51,38,25,24,20,17,82,51,27,30.47,30.36,12,1,13,0.00
2013-12-28,58,44,30,40,24,20,90,48,27,30.38,30.16,14,2,15,0.02
2013-12-29,53,45,41,49,42,38,100,92,75,30.17,29.63,18,2,20,0.99
2013-12-30,51,42,37,41,36,31,95,80,59,30.15,29.87,10,1,12,0.00
2013-12-31,50,39,29,34,25,17,99,63,30,30.34,30.13,23,2,28,0.00
2014-1-1,47,36,27,26,22,17,84,58,36,30.40,30.12,12,1,14,0.00
2014-1-2,43,36,29,38,32,24,100,85,70,30.12,29.60,8,0,8,0.35